Retour au catalogue

STARLINK-35813

ActifCommunicationsVLEO
NORAD 66361·PAYLOAD·🇺🇸 United States

Lancé Nov 6, 2025 depuis Vandenberg Space Force Base

Loading…

Prochains Passages (prochaines 24 heures)

TLE

FraisSource: CelesTrak SupGP

Époque: Sep 15, 2026, 02:36 UTC

1 66361C 25254P   26258.10881944 -.00028682  00000+0 -92245-3 0  2588
2 66361  53.1587  70.9913 0001266  84.8603 127.1046 15.31712281    19

Suivez STARLINK-35813 en temps réel avec AllMySat

Download on the App Store